Home   Weather   Recife   Past weeks

Flag for Brazil Past Weather in Recife, Pernambuco, Brazil — Yesterday and Last 2 Weeks

Now
88 °F

Scattered clouds.


Feels Like: 94 °F
Forecast: 80 / 85 °F
Wind: 14 mph from Southeast

Location: Maceio Aeroporto

Current Time: Jan 23, 2017 at 12:03:45 pm

Latest Report: Jan 23, 2017 at 11:00 am


Visibility: N/A

Pressure: 29.95 "Hg

Humidity: 59%

Dew Point: 72 °F

Location of RecifeLocation

Past Weather in Recife — Graph

°F

Recife Temperature Yesterday

Maximum temperature yesterday: 88 °F (at 1:00 pm)
Minimum temperature yesterday: 75 °F (at 3:00 am)
Average temperature yesterday: 80 °F

High & Low Weather Summary for the Past Weeks

 TemperatureHumidityPressure
High90 °F (Jan 21, 12:00 pm)100% (Jan 10, 5:00 am)29.98 "Hg (Jan 10, 5:00 am)
Low72 °F (Jan 9, 6:00 am)43% (Jan 8, 1:00 pm)29.80 "Hg (Jan 14, 2:00 pm)
Average80 °F75%29.90 "Hg
* Reported Jan 8 11:00 am — Jan 23 11:00 am, Recife, Weather by CustomWeather, © 2017

Note: Actual official high and low records may vary slightly from our data, if they occured in-between our weather recording intervals... More about our weather records

Advertising

Recife Weather History for the Previous 24 Hours

Scroll right to see more
 ConditionsComfort  
Time TempWeatherWind HumidityBarometerVisibility
11:00 am
Mon, Jan 23
88 °FScattered clouds.14 mph59%29.95 "HgN/A
10:00 am88 °FPartly sunny.16 mph59%29.95 "HgN/A
9:00 am84 °FPartly sunny.5 mph66%29.95 "HgN/A
8:00 am82 °FScattered clouds.6 mph74%29.95 "HgN/A
7:00 am79 °FScattered clouds.2 mph89%29.95 "HgN/A
6:00 am75 °FScattered clouds.5 mph94%29.92 "HgN/A
5:00 am73 °FPassing clouds.2 mph94%29.92 "HgN/A
4:00 am75 °FPassing clouds.2 mph94%29.89 "HgN/A
3:00 am75 °FPassing clouds.2 mph94%29.89 "HgN/A
2:00 am73 °FPassing clouds.3 mph94%29.92 "HgN/A
1:00 am75 °FPassing clouds.2 mph89%29.92 "HgN/A
12:00 am75 °FPassing clouds.3 mph94%29.92 "HgN/A
11:00 pm
Sun, Jan 22
77 °FPassing clouds.3 mph89%29.98 "HgN/A
10:00 pm77 °FPassing clouds.6 mph89%29.98 "HgN/A
9:00 pm77 °FPassing clouds.5 mph83%29.98 "HgN/A
8:00 pm79 °FPassing clouds.7 mph79%29.95 "HgN/A
7:00 pm79 °FPassing clouds.9 mph79%29.92 "HgN/A
6:00 pm81 °FPassing clouds.13 mph74%29.92 "HgN/A
5:00 pm82 °FScattered clouds.14 mph66%29.89 "HgN/A
4:00 pm86 °FScattered clouds.16 mph59%29.89 "HgN/A
3:00 pm86 °FScattered clouds.15 mph59%29.92 "HgN/A
2:00 pm88 °FScattered clouds.20 mph55%29.92 "HgN/A
1:00 pm88 °FScattered clouds.22 mph55%29.92 "HgN/A
12:00 pm86 °FScattered clouds.12 mph55%29.95 "HgN/A
Weather by CustomWeather, © 2017

See weather overviewHow to use our weather pages